RPA4490 KLGA-KRDU

Flight info

Callsign RPA4490
Flight time 1h 10m
Altitude 26000
Route WHITE Q409 VILLS NALES Q141 HOUKY TAQLE3
Aircraft E75S/M-SDE3GILORVW/S

Departure

Time 2026-05-06 22:52
Airport LaGuardia Airport (KLGA)

Arrival

Time 2026-05-07 00:02
Airport Raleigh-Durham International Airport (KRDU)
Time Latitude Longitude Altitude Speed Heading
2026-05-06 22:23 40.77633 -73.87382 17 ft 0 kts 171°
2026-05-06 22:42 40.77638 -73.87383 17 ft 4 kts 171°
2026-05-06 22:42 40.77663 -73.87388 18 ft 1 kts 171°
2026-05-06 22:42 40.77684 -73.87398 19 ft 4 kts 134°
2026-05-06 22:42 40.77690 -73.87424 21 ft 2 kts 75°
2026-05-06 22:43 40.77695 -73.87399 19 ft 4 kts 76°
2026-05-06 22:43 40.77695 -73.87366 17 ft 2 kts 99°
2026-05-06 22:43 40.77695 -73.87364 17 ft 0 kts 99°
2026-05-06 22:46 40.77695 -73.87362 17 ft 1 kts 99°
2026-05-06 22:47 40.77692 -73.87338 17 ft 4 kts 96°
2026-05-06 22:47 40.77699 -73.87295 17 ft 4 kts 53°
2026-05-06 22:47 40.77729 -73.87262 18 ft 8 kts 39°
2026-05-06 22:47 40.77732 -73.87183 14 ft 6 kts 90°
2026-05-06 22:48 40.77757 -73.87135 12 ft 8 kts 63°
2026-05-06 22:48 40.77736 -73.87056 11 ft 11 kts 123°
2026-05-06 22:48 40.77685 -73.86953 10 ft 15 kts 123°
2026-05-06 22:48 40.77623 -73.86822 10 ft 18 kts 123°
2026-05-06 22:49 40.77551 -73.86671 10 ft 21 kts 123°
2026-05-06 22:49 40.77470 -73.86498 10 ft 23 kts 123°
2026-05-06 22:49 40.77382 -73.86315 10 ft 24 kts 121°
2026-05-06 22:49 40.77292 -73.86125 10 ft 25 kts 122°
2026-05-06 22:50 40.77195 -73.85928 10 ft 21 kts 121°
2026-05-06 22:50 40.77148 -73.85808 10 ft 6 kts 89°
2026-05-06 22:50 40.77159 -73.85784 13 ft 3 kts 50°
2026-05-06 22:50 40.77183 -73.85753 12 ft 7 kts 36°
2026-05-06 22:51 40.77228 -73.85757 14 ft 9 kts 319°
2026-05-06 22:51 40.77344 -73.85998 14 ft 69 kts 301°
2026-05-06 22:51 40.77746 -73.86837 12 ft 147 kts 302°
2026-05-06 22:51 40.78392 -73.88124 520 ft 176 kts 306°
2026-05-06 22:52 40.79413 -73.89100 1489 ft 187 kts 329°
2026-05-06 22:52 40.80676 -73.89515 2485 ft 194 kts 341°
2026-05-06 22:52 40.82072 -73.89847 3121 ft 217 kts 346°
2026-05-06 22:52 40.83648 -73.90042 3724 ft 234 kts 347°
2026-05-06 22:53 40.85266 -73.90246 4587 ft 238 kts 348°
2026-05-06 22:53 40.86870 -73.90770 5487 ft 234 kts 324°
2026-05-06 22:53 40.88064 -73.92264 5909 ft 252 kts 294°
2026-05-06 22:53 40.88585 -73.94495 6963 ft 248 kts 279°
2026-05-06 22:54 40.88987 -73.96690 8173 ft 244 kts 280°
2026-05-06 22:54 40.89178 -73.98845 9267 ft 239 kts 261°
2026-05-06 22:54 40.88585 -74.00927 10224 ft 243 kts 244°
2026-05-06 22:54 40.87541 -74.02771 10669 ft 272 kts 224°
2026-05-06 22:55 40.85709 -74.03814 11482 ft 294 kts 199°
2026-05-06 22:55 40.83696 -74.04174 12549 ft 299 kts 193°
2026-05-06 22:55 40.81589 -74.04381 13586 ft 305 kts 192°
2026-05-06 22:55 40.79487 -74.04581 14464 ft 311 kts 192°
2026-05-06 22:56 40.77338 -74.04788 15405 ft 317 kts 192°
2026-05-06 22:56 40.75105 -74.05013 16320 ft 324 kts 192°
2026-05-06 22:56 40.72813 -74.05250 17181 ft 330 kts 192°
2026-05-06 22:56 40.70505 -74.05492 17995 ft 337 kts 192°
2026-05-06 22:57 40.68151 -74.05743 18780 ft 341 kts 193°
2026-05-06 22:57 40.66582 -74.05891 19345 ft 344 kts 193°
2026-05-06 22:57 40.64170 -74.06065 20102 ft 350 kts 193°
2026-05-06 22:57 40.60922 -74.06210 21163 ft 356 kts 193°
2026-05-06 22:58 40.58418 -74.06272 21907 ft 361 kts 193°
2026-05-06 22:58 40.55895 -74.06293 22623 ft 365 kts 193°
2026-05-06 22:58 40.54175 -74.06287 23078 ft 368 kts 193°
2026-05-06 22:58 40.51600 -74.06249 23698 ft 372 kts 193°
2026-05-06 22:59 40.48998 -74.06190 24276 ft 375 kts 192°
2026-05-06 22:59 40.46384 -74.06126 24820 ft 378 kts 192°
2026-05-06 22:59 40.43784 -74.06063 25287 ft 381 kts 192°
2026-05-06 22:59 40.41122 -74.06043 25790 ft 380 kts 195°
2026-05-06 23:00 40.38487 -74.06303 26069 ft 382 kts 201°
2026-05-06 23:00 40.35819 -74.06877 25907 ft 399 kts 202°
2026-05-06 23:00 40.33065 -74.07557 25806 ft 403 kts 202°
2026-05-06 23:00 40.30287 -74.08262 25872 ft 409 kts 202°
2026-05-06 23:01 40.27492 -74.08977 25853 ft 408 kts 202°
2026-05-06 23:01 40.24708 -74.09692 25861 ft 408 kts 202°
2026-05-06 23:01 40.21913 -74.10415 25896 ft 410 kts 202°
2026-05-06 23:01 40.19146 -74.11149 25851 ft 410 kts 202°
2026-05-06 23:02 40.16365 -74.11887 25865 ft 410 kts 202°
2026-05-06 23:02 40.13581 -74.12629 25857 ft 410 kts 202°
2026-05-06 23:02 40.10748 -74.13387 25872 ft 408 kts 204°
2026-05-06 23:02 40.08084 -74.14481 25871 ft 395 kts 213°
2026-05-06 23:03 40.05735 -74.16116 25868 ft 383 kts 222°
2026-05-06 23:03 40.03583 -74.18104 25821 ft 380 kts 225°
2026-05-06 23:03 40.01575 -74.20304 25898 ft 376 kts 230°
2026-05-06 23:03 39.99663 -74.22695 25854 ft 373 kts 232°
2026-05-06 23:04 39.97884 -74.25087 25861 ft 371 kts 235°
2026-05-06 23:04 39.96324 -74.27738 25888 ft 367 kts 240°
2026-05-06 23:04 39.94760 -74.30382 25887 ft 370 kts 236°
2026-05-06 23:04 39.92916 -74.32759 25887 ft 378 kts 228°
2026-05-06 23:05 39.90782 -74.34819 25858 ft 384 kts 223°
2026-05-06 23:05 39.88529 -74.36721 25849 ft 385 kts 222°
2026-05-06 23:05 39.86325 -74.38641 25845 ft 380 kts 224°
2026-05-06 23:05 39.84179 -74.40657 25866 ft 381 kts 225°
2026-05-06 23:06 39.82090 -74.42772 25851 ft 379 kts 230°
2026-05-06 23:06 39.80305 -74.45240 25877 ft 375 kts 234°
2026-05-06 23:06 39.78470 -74.47662 25858 ft 375 kts 231°
2026-05-06 23:06 39.76591 -74.50023 25858 ft 376 kts 231°
2026-05-06 23:07 39.74727 -74.52396 25854 ft 375 kts 232°
2026-05-06 23:07 39.72899 -74.54784 25855 ft 375 kts 232°
2026-05-06 23:07 39.71076 -74.57207 25855 ft 374 kts 233°
2026-05-06 23:07 39.69260 -74.59630 25861 ft 374 kts 233°
2026-05-06 23:08 39.67437 -74.62049 25861 ft 375 kts 232°
2026-05-06 23:08 39.65615 -74.64454 25860 ft 375 kts 232°
2026-05-06 23:08 39.63783 -74.66867 25862 ft 375 kts 232°
2026-05-06 23:08 39.61952 -74.69275 25861 ft 375 kts 232°
2026-05-06 23:09 39.60134 -74.71666 25864 ft 375 kts 232°
2026-05-06 23:09 39.58294 -74.74087 25866 ft 375 kts 232°
2026-05-06 23:09 39.56464 -74.76492 25866 ft 375 kts 232°
2026-05-06 23:09 39.54647 -74.78878 25862 ft 375 kts 232°
2026-05-06 23:10 39.52838 -74.81252 25862 ft 374 kts 232°
2026-05-06 23:10 39.51008 -74.83650 25865 ft 375 kts 232°
2026-05-06 23:10 39.49170 -74.86058 25864 ft 375 kts 232°
2026-05-06 23:10 39.47340 -74.88454 25856 ft 376 kts 232°
2026-05-06 23:11 39.45500 -74.90865 25857 ft 378 kts 232°
2026-05-06 23:11 39.43647 -74.93285 25869 ft 377 kts 232°
2026-05-06 23:11 39.41797 -74.95697 25862 ft 377 kts 232°
2026-05-06 23:11 39.39948 -74.98108 25866 ft 377 kts 232°
2026-05-06 23:12 39.38104 -75.00512 25863 ft 377 kts 232°
2026-05-06 23:12 39.36252 -75.02925 25880 ft 377 kts 232°
2026-05-06 23:12 39.34398 -75.05338 25880 ft 377 kts 232°
2026-05-06 23:12 39.32557 -75.07731 25851 ft 374 kts 232°
2026-05-06 23:13 39.30729 -75.10103 25892 ft 373 kts 233°
2026-05-06 23:13 39.28893 -75.12491 25844 ft 375 kts 232°
2026-05-06 23:13 39.27048 -75.14899 25887 ft 380 kts 232°
2026-05-06 23:13 39.25194 -75.17313 25873 ft 378 kts 232°
2026-05-06 23:14 39.23338 -75.19724 25877 ft 379 kts 232°
2026-05-06 23:14 39.21503 -75.22109 25875 ft 379 kts 232°
2026-05-06 23:14 39.19626 -75.24544 25860 ft 379 kts 232°
2026-05-06 23:14 39.17768 -75.26956 25858 ft 379 kts 232°
2026-05-06 23:15 39.15932 -75.29336 25856 ft 378 kts 232°
2026-05-06 23:15 39.14075 -75.31741 25856 ft 378 kts 232°
2026-05-06 23:15 39.12219 -75.34143 25854 ft 378 kts 232°
2026-05-06 23:15 39.10356 -75.36552 25854 ft 378 kts 232°
2026-05-06 23:16 39.08492 -75.38962 25882 ft 381 kts 232°
2026-05-06 23:16 39.06624 -75.41375 25849 ft 381 kts 232°
2026-05-06 23:16 39.04757 -75.43781 25856 ft 379 kts 232°
2026-05-06 23:16 39.02891 -75.46183 25860 ft 378 kts 232°
2026-05-06 23:17 39.01045 -75.48563 25854 ft 379 kts 232°
2026-05-06 23:17 38.99166 -75.50982 25857 ft 379 kts 232°
2026-05-06 23:17 38.97310 -75.53369 25851 ft 378 kts 232°
2026-05-06 23:17 38.95447 -75.55763 25862 ft 378 kts 232°
2026-05-06 23:18 38.93589 -75.58150 25858 ft 378 kts 232°
2026-05-06 23:18 38.91721 -75.60546 25863 ft 378 kts 232°
2026-05-06 23:18 38.89890 -75.62974 25911 ft 377 kts 237°
2026-05-06 23:18 38.88475 -75.65768 25909 ft 372 kts 246°
2026-05-06 23:19 38.87183 -75.68598 25850 ft 372 kts 244°
2026-05-06 23:19 38.85839 -75.71412 25861 ft 372 kts 244°
2026-05-06 23:19 38.84484 -75.74289 25888 ft 372 kts 245°
2026-05-06 23:19 38.83180 -75.77158 25876 ft 371 kts 245°
2026-05-06 23:20 38.81913 -75.79999 25859 ft 368 kts 245°
2026-05-06 23:20 38.80628 -75.82869 25887 ft 367 kts 245°
2026-05-06 23:20 38.79370 -75.85670 25881 ft 368 kts 245°
2026-05-06 23:20 38.78048 -75.88484 25898 ft 371 kts 242°
2026-05-06 23:21 38.76364 -75.91029 25892 ft 380 kts 232°
2026-05-06 23:21 38.74258 -75.93169 25899 ft 392 kts 222°
2026-05-06 23:21 38.71846 -75.94883 25879 ft 400 kts 216°
2026-05-06 23:21 38.69346 -75.96471 25849 ft 403 kts 216°
2026-05-06 23:22 38.66825 -75.98052 25870 ft 402 kts 216°
2026-05-06 23:22 38.64311 -75.99624 25881 ft 402 kts 216°
2026-05-06 23:22 38.61791 -76.01199 25879 ft 402 kts 216°
2026-05-06 23:22 38.59275 -76.02773 25881 ft 403 kts 216°
2026-05-06 23:23 38.56755 -76.04350 25882 ft 403 kts 216°
2026-05-06 23:23 38.54243 -76.05924 25879 ft 402 kts 216°
2026-05-06 23:23 38.51727 -76.07499 25879 ft 402 kts 216°
2026-05-06 23:23 38.49207 -76.09085 25898 ft 405 kts 216°
2026-05-06 23:24 38.46689 -76.10681 25878 ft 404 kts 216°
2026-05-06 23:24 38.44212 -76.12257 25883 ft 404 kts 216°
2026-05-06 23:24 38.41656 -76.13880 25883 ft 404 kts 216°
2026-05-06 23:24 38.39137 -76.15481 25870 ft 403 kts 216°
2026-05-06 23:25 38.36665 -76.17035 25893 ft 401 kts 216°
2026-05-06 23:25 38.34158 -76.18612 25878 ft 402 kts 216°
2026-05-06 23:25 38.31650 -76.20188 25878 ft 402 kts 216°
2026-05-06 23:25 38.29137 -76.21773 25883 ft 404 kts 216°
2026-05-06 23:26 38.26627 -76.23372 25865 ft 404 kts 216°
2026-05-06 23:26 38.24118 -76.24977 25878 ft 403 kts 216°
2026-05-06 23:26 38.21608 -76.26581 25873 ft 403 kts 216°
2026-05-06 23:26 38.19100 -76.28187 25890 ft 403 kts 216°
2026-05-06 23:27 38.16596 -76.29788 25890 ft 403 kts 216°
2026-05-06 23:27 38.14092 -76.31394 25889 ft 403 kts 216°
2026-05-06 23:27 38.11588 -76.33000 25889 ft 403 kts 216°
2026-05-06 23:27 38.09081 -76.34608 25852 ft 403 kts 216°
2026-05-06 23:28 38.06589 -76.36236 25919 ft 407 kts 217°
2026-05-06 23:28 38.04107 -76.37987 25877 ft 405 kts 218°
2026-05-06 23:28 38.01659 -76.39751 25881 ft 404 kts 218°
2026-05-06 23:28 37.99220 -76.41516 25894 ft 404 kts 218°
2026-05-06 23:29 37.96782 -76.43282 25898 ft 404 kts 218°
2026-05-06 23:29 37.94341 -76.45052 25902 ft 404 kts 218°
2026-05-06 23:29 37.91900 -76.46823 25900 ft 404 kts 218°
2026-05-06 23:29 37.89455 -76.48595 25898 ft 404 kts 218°
2026-05-06 23:30 37.87044 -76.50344 25872 ft 406 kts 217°
2026-05-06 23:30 37.84590 -76.52141 25887 ft 405 kts 218°
2026-05-06 23:30 37.82160 -76.53915 25912 ft 405 kts 218°
2026-05-06 23:30 37.79724 -76.55727 25911 ft 403 kts 220°
2026-05-06 23:31 37.77428 -76.57733 25919 ft 400 kts 223°
2026-05-06 23:31 37.75189 -76.59815 25892 ft 399 kts 224°
2026-05-06 23:31 37.72959 -76.61909 25920 ft 403 kts 224°
2026-05-06 23:31 37.70706 -76.64035 25918 ft 405 kts 224°
2026-05-06 23:32 37.68444 -76.66175 25901 ft 407 kts 224°
2026-05-06 23:32 37.66174 -76.68371 25926 ft 411 kts 226°
2026-05-06 23:32 37.64000 -76.70702 25890 ft 410 kts 228°
2026-05-06 23:32 37.61854 -76.73076 25896 ft 409 kts 228°
2026-05-06 23:33 37.59720 -76.75450 25795 ft 410 kts 228°
2026-05-06 23:33 37.57576 -76.77839 25670 ft 410 kts 228°
2026-05-06 23:33 37.55465 -76.80238 25547 ft 409 kts 230°
2026-05-06 23:33 37.53397 -76.82703 25431 ft 409 kts 230°
2026-05-06 23:34 37.51331 -76.85186 25317 ft 409 kts 230°
2026-05-06 23:34 37.49331 -76.87589 25197 ft 401 kts 230°
2026-05-06 23:34 37.47303 -76.90001 25000 ft 395 kts 230°
2026-05-06 23:34 37.45342 -76.92313 24778 ft 383 kts 231°
2026-05-06 23:35 37.43446 -76.94717 24624 ft 387 kts 233°
2026-05-06 23:35 37.41623 -76.97208 24457 ft 387 kts 234°
2026-05-06 23:35 37.39808 -76.99719 24291 ft 387 kts 234°
2026-05-06 23:35 37.38003 -77.02221 24117 ft 383 kts 234°
2026-05-06 23:36 37.36212 -77.04693 23952 ft 381 kts 234°
2026-05-06 23:36 37.34393 -77.07139 23784 ft 386 kts 230°
2026-05-06 23:36 37.32154 -77.09094 23613 ft 398 kts 218°
2026-05-06 23:36 37.29676 -77.10690 23446 ft 401 kts 215°
2026-05-06 23:37 37.27173 -77.12218 23251 ft 400 kts 214°
2026-05-06 23:37 37.24674 -77.13736 23026 ft 399 kts 214°
2026-05-06 23:37 37.22156 -77.15282 22823 ft 403 kts 214°
2026-05-06 23:37 37.19634 -77.16845 22515 ft 403 kts 214°
2026-05-06 23:38 37.17132 -77.18401 22136 ft 399 kts 214°
2026-05-06 23:38 37.14659 -77.19942 21769 ft 396 kts 214°
2026-05-06 23:38 37.12193 -77.21485 21411 ft 394 kts 214°
2026-05-06 23:38 37.09773 -77.23000 21081 ft 393 kts 214°
2026-05-06 23:39 37.07339 -77.24523 20738 ft 388 kts 214°
2026-05-06 23:39 37.04936 -77.26025 20408 ft 386 kts 214°
2026-05-06 23:39 37.02538 -77.27527 20053 ft 385 kts 214°
2026-05-06 23:39 37.00139 -77.29044 19733 ft 386 kts 214°
2026-05-06 23:40 36.97755 -77.30557 19413 ft 384 kts 214°
2026-05-06 23:40 36.95388 -77.32085 19100 ft 380 kts 216°
2026-05-06 23:40 36.93118 -77.33757 18797 ft 376 kts 219°
2026-05-06 23:40 36.90911 -77.35478 18499 ft 374 kts 219°
2026-05-06 23:41 36.89446 -77.36624 18302 ft 373 kts 219°
2026-05-06 23:41 36.87249 -77.38346 17971 ft 371 kts 219°
2026-05-06 23:41 36.85075 -77.40057 17633 ft 369 kts 219°
2026-05-06 23:41 36.82209 -77.42332 17190 ft 367 kts 219°
2026-05-06 23:42 36.80055 -77.44056 16839 ft 367 kts 220°
2026-05-06 23:42 36.77918 -77.45779 16523 ft 366 kts 219°
2026-05-06 23:42 36.76476 -77.46950 16309 ft 364 kts 219°
2026-05-06 23:42 36.74358 -77.48682 16028 ft 362 kts 219°
2026-05-06 23:43 36.72266 -77.50403 15834 ft 361 kts 220°
2026-05-06 23:43 36.70205 -77.52108 15638 ft 361 kts 220°
2026-05-06 23:43 36.68087 -77.53871 15436 ft 359 kts 220°
2026-05-06 23:43 36.66014 -77.55607 15237 ft 359 kts 220°
2026-05-06 23:44 36.63974 -77.57322 15042 ft 358 kts 220°
2026-05-06 23:44 36.61914 -77.59065 14842 ft 357 kts 220°
2026-05-06 23:44 36.59866 -77.60801 14660 ft 354 kts 220°
2026-05-06 23:44 36.57839 -77.62529 14443 ft 353 kts 220°
2026-05-06 23:45 36.55821 -77.64262 14246 ft 353 kts 220°
2026-05-06 23:45 36.53802 -77.66005 14053 ft 351 kts 220°
2026-05-06 23:45 36.51829 -77.67765 13864 ft 349 kts 223°
2026-05-06 23:45 36.50158 -77.69896 13680 ft 342 kts 236°
2026-05-06 23:46 36.48894 -77.72367 13478 ft 336 kts 246°
2026-05-06 23:46 36.47897 -77.74979 13286 ft 336 kts 246°
2026-05-06 23:46 36.46655 -77.77462 13083 ft 339 kts 235°
2026-05-06 23:46 36.45020 -77.79573 12951 ft 341 kts 226°
2026-05-06 23:47 36.43189 -77.81461 12816 ft 343 kts 223°
2026-05-06 23:47 36.41355 -77.83338 12686 ft 341 kts 225°
2026-05-06 23:47 36.39603 -77.85308 12545 ft 339 kts 227°
2026-05-06 23:47 36.37909 -77.87337 12411 ft 338 kts 228°
2026-05-06 23:48 36.36246 -77.89349 12262 ft 338 kts 228°
2026-05-06 23:48 36.34565 -77.91356 12127 ft 337 kts 227°
2026-05-06 23:48 36.32841 -77.93390 11996 ft 337 kts 227°
2026-05-06 23:48 36.31163 -77.95362 11863 ft 336 kts 227°
2026-05-06 23:49 36.29468 -77.97352 11738 ft 335 kts 227°
2026-05-06 23:49 36.27776 -77.99338 11606 ft 334 kts 227°
2026-05-06 23:49 36.26089 -78.01320 11479 ft 334 kts 227°
2026-05-06 23:49 36.24402 -78.03302 11344 ft 333 kts 227°
2026-05-06 23:50 36.23001 -78.05399 11185 ft 300 kts 244°
2026-05-06 23:50 36.21346 -78.09691 10888 ft 263 kts 247°
2026-05-06 23:50 36.20567 -78.11723 10702 ft 260 kts 248°
2026-05-06 23:51 36.19843 -78.13789 10553 ft 263 kts 250°
2026-05-06 23:51 36.19165 -78.15897 10400 ft 263 kts 250°
2026-05-06 23:51 36.18493 -78.18003 10250 ft 263 kts 250°
2026-05-06 23:51 36.17806 -78.20098 10083 ft 262 kts 249°
2026-05-06 23:52 36.17107 -78.22176 9921 ft 261 kts 249°
2026-05-06 23:52 36.16415 -78.24218 9681 ft 254 kts 249°
2026-05-06 23:52 36.15738 -78.26211 9366 ft 248 kts 249°
2026-05-06 23:52 36.15089 -78.28131 9033 ft 245 kts 249°
2026-05-06 23:53 36.14508 -78.30111 8670 ft 242 kts 255°
2026-05-06 23:53 36.14166 -78.32136 8328 ft 239 kts 261°
2026-05-06 23:53 36.13930 -78.34152 7963 ft 237 kts 262°
2026-05-06 23:53 36.13669 -78.36163 7562 ft 237 kts 260°
2026-05-06 23:54 36.13342 -78.38138 7168 ft 234 kts 258°
2026-05-06 23:54 36.12971 -78.40082 6778 ft 231 kts 256°
2026-05-06 23:54 36.12591 -78.42009 6398 ft 230 kts 257°
2026-05-06 23:54 36.12229 -78.43924 5986 ft 228 kts 257°
2026-05-06 23:55 36.11882 -78.45828 5594 ft 227 kts 257°
2026-05-06 23:55 36.11539 -78.47733 5197 ft 226 kts 257°
2026-05-06 23:55 36.11067 -78.49554 5014 ft 215 kts 250°
2026-05-06 23:55 36.10574 -78.51229 5027 ft 200 kts 248°
2026-05-06 23:56 36.09631 -78.52425 5034 ft 208 kts 205°
2026-05-06 23:56 36.08216 -78.52902 5344 ft 209 kts 208°
2026-05-06 23:56 36.06962 -78.53869 5430 ft 205 kts 224°
2026-05-06 23:56 36.05918 -78.55009 6069 ft 209 kts 227°
2026-05-06 23:57 36.04851 -78.56281 6130 ft 214 kts 229°
2026-05-06 23:57 36.03796 -78.57584 5867 ft 213 kts 229°
2026-05-06 23:57 36.02787 -78.58868 5716 ft 206 kts 231°
2026-05-06 23:57 36.01840 -78.60180 5409 ft 203 kts 231°
2026-05-06 23:58 36.00876 -78.61466 5093 ft 202 kts 229°
2026-05-06 23:58 35.99909 -78.62684 4766 ft 201 kts 227°
2026-05-06 23:58 35.98886 -78.63912 4307 ft 201 kts 228°
2026-05-06 23:58 35.97924 -78.65113 3878 ft 191 kts 230°
2026-05-06 23:59 35.97075 -78.66275 3490 ft 183 kts 232°
2026-05-06 23:59 35.96279 -78.67515 2933 ft 183 kts 234°
2026-05-06 23:59 35.95480 -78.68701 2663 ft 169 kts 228°
2026-05-06 23:59 35.94692 -78.69706 2396 ft 167 kts 229°
2026-05-07 00:00 35.93880 -78.70761 2001 ft 166 kts 229°
2026-05-07 00:00 35.93112 -78.71733 1854 ft 147 kts 225°
2026-05-07 00:00 35.92385 -78.72515 1790 ft 137 kts 223°
2026-05-07 00:00 35.91709 -78.73311 1639 ft 134 kts 228°
2026-05-07 00:01 35.91040 -78.74122 1322 ft 138 kts 225°
2026-05-07 00:01 35.90355 -78.74924 1160 ft 134 kts 226°
2026-05-07 00:01 35.89703 -78.75751 962 ft 143 kts 226°
2026-05-07 00:01 35.88992 -78.76625 808 ft 145 kts 224°
2026-05-07 00:02 35.88280 -78.77501 584 ft 143 kts 225°
2026-05-07 00:02 35.87607 -78.78326 423 ft 127 kts 225°
2026-05-07 00:02 35.87062 -78.79002 434 ft 85 kts 225°
2026-05-07 00:02 35.86829 -78.79307 422 ft 26 kts 232°
2026-05-07 00:03 35.86776 -78.79421 431 ft 13 kts 248°
2026-05-07 00:03 35.86766 -78.79502 423 ft 5 kts 294°
2026-05-07 00:03 35.86766 -78.79503 423 ft 0 kts 296°
2026-05-07 00:05 35.86778 -78.79524 424 ft 6 kts 312°
2026-05-07 00:05 35.86823 -78.79579 434 ft 11 kts 316°
2026-05-07 00:05 35.86896 -78.79666 430 ft 18 kts 315°
2026-05-07 00:05 35.87004 -78.79799 416 ft 21 kts 315°
2026-05-07 00:06 35.87093 -78.79907 406 ft 14 kts 315°
2026-05-07 00:06 35.87181 -78.79986 402 ft 15 kts 326°
2026-05-07 00:06 35.87242 -78.80028 396 ft 5 kts 334°
2026-05-07 00:06 35.87268 -78.80044 393 ft 11 kts 334°
2026-05-07 00:07 35.87344 -78.80022 389 ft 13 kts 45°
2026-05-07 00:07 35.87420 -78.79929 389 ft 17 kts 45°
2026-05-07 00:07 35.87475 -78.79867 389 ft 10 kts 45°
2026-05-07 00:07 35.87516 -78.79816 389 ft 9 kts 45°
2026-05-07 00:08 35.87546 -78.79778 389 ft 7 kts 45°
2026-05-07 00:08 35.87562 -78.79758 389 ft 0 kts 45°
2026-05-07 00:09 35.87567 -78.79752 389 ft 4 kts 44°
2026-05-07 00:10 35.87581 -78.79735 389 ft 0 kts 45°
2026-05-07 00:11 35.87582 -78.79733 389 ft 0 kts 45°
2026-05-07 00:11 35.87584 -78.79731 389 ft 2 kts 45°
2026-05-07 00:12 35.87604 -78.79706 389 ft 6 kts 45°
2026-05-07 00:12 35.87648 -78.79652 389 ft 11 kts 45°
2026-05-07 00:12 35.87711 -78.79574 389 ft 15 kts 45°
2026-05-07 00:12 35.87796 -78.79469 389 ft 18 kts 45°
2026-05-07 00:13 35.87853 -78.79399 389 ft 7 kts 45°
2026-05-07 00:13 35.87872 -78.79350 389 ft 5 kts 96°
2026-05-07 00:13 35.87853 -78.79316 389 ft 3 kts 139°
2026-05-07 00:13 35.87847 -78.79308 389 ft 0 kts 139°
2026-05-07 00:14 35.87845 -78.79307 389 ft 0 kts 138°